This demonstration page uses our WeatherBlox Daily Observations layout. Learn more.

Left ArrowRight Arrow

30.21309, -93.2044

Hourly Observations for May 3, 2015

Temp ( °F °C ) Dew Point ( °F °C ) Humidity (%) Winds ( mph kmh ) Pressure ( in mb ) Visibility ( mi km ) Precip ( " mm )
12:15 am 00:15 Clear 65 18.2 60 15.8 86 86 Calm 30.06 1018 10 16 0.00 0.00
12:35 am 00:35 Clear 64 17.8 61 15.9 89 89 Calm 30.03 1017 10 16 0.00 0.00
12:55 am 00:55 Clear 64 17.5 61 16 91 91 Calm 30.03 1017 10 16 0.00 0.00
1:15 am 01:15 Clear 64 17.5 60 15.7 89 89 Calm 30.03 1017 10 16 0.00 0.00
1:35 am 01:35 Clear 63 17.1 61 16 93 93 Calm 30.03 1017 10 16 0.00 0.00
1:55 am 01:55 Clear 63 17 61 16 94 94 Calm 30.03 1017 10 16 0.00 0.00
2:15 am 02:15 Clear 62 16.6 60 15.5 93 93 Calm 30.03 1017 10 16 0.00 0.00
2:35 am 02:35 Clear 62 16.5 60 15.6 94 94 Calm 30.03 1017 10 16 0.00 0.00
2:55 am 02:55 Clear 62 16.6 60 15.6 94 94 Calm 30.03 1017 10 16 0.00 0.00
3:15 am 03:15 Clear 62 16.5 60 15.6 94 94 Calm 30.03 1017 10 16 0.00 0.00
3:35 am 03:35 Clear 61 16.3 60 15.6 96 96 Calm 30.03 1017 10 16 0.00 0.00
3:55 am 03:55 Clear 60 15.8 59 15.2 96 96 Calm 30.03 1017 10 16 0.00 0.00
4:15 am 04:15 Clear 60 15.8 59 15.2 96 96 Calm 30.03 1017 10 16 0.00 0.00
4:35 am 04:35 Clear 60 15.5 59 15 97 97 Calm 30.03 1017 10 16 0.00 0.00
4:55 am 04:55 Clear 59 15.2 59 14.8 97 97 Calm 30.03 1017 10 16 0.00 0.00
5:15 am 05:15 Clear 59 15 58 14.6 97 97 Calm 30.06 1018 10 16 0.00 0.00
6:00 am 06:00 Mostly Clear 59 15 57 14 94 94 Calm 30.06 1018 10 16 0.00 0.00
6:50 am 06:50 Mostly Sunny 59 15 57 14 94 94 Calm 30.06 1018 10 16 0.00 0.00
7:50 am 07:50 Mostly Sunny 59 15 57 14 94 94 Calm 30.06 1018 10 16 0.00 0.00
8:45 am 08:45 Mostly Sunny 70 21 64 18 83 83 Calm 30.09 1019 7 11 0.00 0.00
8:55 am 08:55 Mostly Sunny 70 21 64 18 83 83 Calm 30.09 1019 7 11 0.00 0.00
9:55 am 09:55 Partly Cloudy 75 24 64 18 69 69 Calm 30.09 1019 10 16 0.00 0.00
10:45 am 10:45 Mostly Cloudy 79 26 61 16 54 54 SSW 10 17 30.12 1020 10 16 0.00 0.00
11:47 am 11:47 Mostly Cloudy 81 27 61 16 51 51 SSW 13 20 30.12 1020 10 16 0.00 0.00
12:50 pm 12:50 Mostly Cloudy 79 26 61 16 54 54 SSW 14 22 30.09 1019 10 16 0.00 0.00
1:45 pm 13:45 Mostly Cloudy 81 27 61 16 51 51 SSW 14 22 30.09 1019 10 16 0.00 0.00
9:50 pm 21:50 Mostly Clear 64 18 61 16 88 88 SSE 3 6 30.06 1018 10 16 0.00 0.00
10:15 pm 22:15 Clear 65 18.5 59 15 80 80 SE 3 6 30.09 1019 10 16 0.00 0.00
10:35 pm 22:35 Clear 64 17.9 59 15.1 84 84 Calm 30.09 1019 10 16 0.00 0.00
10:55 pm 22:55 Clear 64 18 59 15 83 83 SE 3 6 30.09 1019 10 16 0.00 0.00
11:15 pm 23:15 Clear 64 17.8 59 15.1 84 84 ESE 3 6 30.09 1019 10 16 0.00 0.00
11:35 pm 23:35 Clear 63 17.3 60 15.4 89 89 Calm 30.09 1019 10 16 0.00 0.00
11:55 pm 23:55 Clear 63 17.4 60 15.5 89 89 ESE 3 6 30.09 1019 10 16 0.00 0.00

Powered by AerisWeather